Zurück zum Katalog

STARLINK-37043

AktivKommunikationVLEO
NORAD 68246·PAYLOAD·🇺🇸 United States

Gestartet Mar 17, 2026 von Vandenberg Space Force Base

Loading…

Nächste Überflüge (nächste 24 Stunden)

TLE

AktuellSource: CelesTrak SupGP

Epoche: Sep 14, 2026, 23:08 UTC

1 68246C 26054Q   26257.96437500 -.00020002  00000+0 -59097-3 0  2574
2 68246  53.1570 127.7273 0001260  77.9129 196.8575 15.34400184    14

Verfolge STARLINK-37043 in Echtzeit mit AllMySat

Download on the App Store